Volver al catálogo

DEIMOS 2

ActivoCienciaSSO
NORAD 40013·PAYLOAD·🇪🇸 Spain

Lanzado Jun 19, 2014 desde Dombarovsky

Loading…

Próximos Pases (próximas 24 horas)

TLE

ActualizadoSource: Space-Track

Época: Sep 14, 2026, 14:33 UTC

1 40013U 14033D   26257.60625252  .00001660  00000-0  16111-3 0  9995
2 40013  97.5676 128.8987 0002343  66.2642 293.8824 14.93926590651074

Sigue DEIMOS 2 en tiempo real con AllMySat

Download on the App Store